Year,Month,Day,Hour,Minute,Value (Times are PST for temperature in C)
2021,06,24,00,00,15.70
2021,06,24,00,01,15.70
2021,06,24,00,02,15.70
2021,06,24,00,03,15.80
2021,06,24,00,04,15.80
2021,06,24,00,05,15.80
2021,06,24,00,06,15.80
2021,06,24,00,07,15.80
2021,06,24,00,08,15.80
2021,06,24,00,09,15.80
2021,06,24,00,10,15.80
2021,06,24,00,11,15.80
2021,06,24,00,12,15.80
2021,06,24,00,13,15.80
2021,06,24,00,14,15.80
2021,06,24,00,15,15.80
2021,06,24,00,16,15.80
2021,06,24,00,17,15.80
2021,06,24,00,18,15.80
2021,06,24,00,19,15.80
2021,06,24,00,20,15.80
2021,06,24,00,21,15.80
2021,06,24,00,22,15.70
2021,06,24,00,23,15.70
2021,06,24,00,24,15.70
2021,06,24,00,25,15.70
2021,06,24,00,26,15.60
2021,06,24,00,27,15.60
2021,06,24,00,28,15.60
2021,06,24,00,29,15.50
2021,06,24,00,30,15.50
2021,06,24,00,31,15.50
2021,06,24,00,32,15.40
2021,06,24,00,33,15.40
2021,06,24,00,34,15.40
2021,06,24,00,35,15.30
2021,06,24,00,36,15.30
2021,06,24,00,37,15.30
2021,06,24,00,38,15.30
2021,06,24,00,39,15.30
2021,06,24,00,40,15.30
2021,06,24,00,41,15.30
2021,06,24,00,42,15.30
2021,06,24,00,43,15.30
2021,06,24,00,44,15.20
2021,06,24,00,45,15.20
2021,06,24,00,46,15.30
2021,06,24,00,47,15.30
2021,06,24,00,48,15.20
2021,06,24,00,49,15.20
2021,06,24,00,50,15.20
2021,06,24,00,51,15.20
2021,06,24,00,52,15.20
2021,06,24,00,53,15.20
2021,06,24,00,54,15.20
2021,06,24,00,55,15.10
2021,06,24,00,56,15.10
2021,06,24,00,57,15.10
2021,06,24,00,58,15.10
2021,06,24,00,59,15.10
2021,06,24,01,00,15.00
2021,06,24,01,01,15.00
2021,06,24,01,02,15.00
2021,06,24,01,03,15.00
2021,06,24,01,04,15.00
2021,06,24,01,05,15.00
2021,06,24,01,06,15.00
2021,06,24,01,07,14.90
2021,06,24,01,08,14.90
2021,06,24,01,09,14.90
2021,06,24,01,10,14.90
2021,06,24,01,11,14.90
2021,06,24,01,12,14.80
2021,06,24,01,13,14.80
2021,06,24,01,14,14.80
2021,06,24,01,15,14.80
2021,06,24,01,16,14.80
2021,06,24,01,17,14.80
2021,06,24,01,18,14.80
2021,06,24,01,19,14.80
2021,06,24,01,20,14.80
2021,06,24,01,21,14.70
2021,06,24,01,22,14.70
2021,06,24,01,23,14.70
2021,06,24,01,24,14.70
2021,06,24,01,25,14.70
2021,06,24,01,26,14.70
2021,06,24,01,27,14.70
2021,06,24,01,28,14.70
2021,06,24,01,29,14.70
2021,06,24,01,30,14.70
2021,06,24,01,31,14.60
2021,06,24,01,32,14.60
2021,06,24,01,33,14.60
2021,06,24,01,34,14.60
2021,06,24,01,35,14.60
2021,06,24,01,36,14.60
2021,06,24,01,37,14.60
2021,06,24,01,38,14.60
2021,06,24,01,39,14.60
2021,06,24,01,40,14.60
2021,06,24,01,41,14.60
2021,06,24,01,42,14.60
2021,06,24,01,43,14.60
2021,06,24,01,44,14.60
2021,06,24,01,45,14.60
2021,06,24,01,46,14.60
2021,06,24,01,47,14.60
2021,06,24,01,48,14.60
2021,06,24,01,49,14.50
2021,06,24,01,50,14.50
2021,06,24,01,51,14.50
2021,06,24,01,52,14.50
2021,06,24,01,53,14.50
2021,06,24,01,54,14.50
2021,06,24,01,55,14.50
2021,06,24,01,56,14.50
2021,06,24,01,57,14.50
2021,06,24,01,58,14.50
2021,06,24,01,59,14.50
2021,06,24,02,00,14.50
2021,06,24,02,01,14.50
2021,06,24,02,02,14.40
2021,06,24,02,03,14.40
2021,06,24,02,04,14.40
2021,06,24,02,05,14.40
2021,06,24,02,06,14.40
2021,06,24,02,07,14.40
2021,06,24,02,08,14.40
2021,06,24,02,09,14.40
2021,06,24,02,10,14.30
2021,06,24,02,11,14.30
2021,06,24,02,12,14.30
2021,06,24,02,13,14.30
2021,06,24,02,14,14.30
2021,06,24,02,15,14.30
2021,06,24,02,16,14.30
2021,06,24,02,17,14.20
2021,06,24,02,18,14.20
2021,06,24,02,19,14.20
2021,06,24,02,20,14.20
2021,06,24,02,21,14.20
2021,06,24,02,22,14.20
2021,06,24,02,23,14.20
2021,06,24,02,24,14.20
2021,06,24,02,25,14.20
2021,06,24,02,26,14.20
2021,06,24,02,27,14.20
2021,06,24,02,28,14.20
2021,06,24,02,29,14.20
2021,06,24,02,30,14.20
2021,06,24,02,31,14.20
2021,06,24,02,32,14.20
2021,06,24,02,33,14.20
2021,06,24,02,34,14.20
2021,06,24,02,35,14.20
2021,06,24,02,36,14.10
2021,06,24,02,37,14.10
2021,06,24,02,38,14.10
2021,06,24,02,39,14.10
2021,06,24,02,40,14.10
2021,06,24,02,41,14.10
2021,06,24,02,42,14.10
2021,06,24,02,43,14.00
2021,06,24,02,44,14.00
2021,06,24,02,45,14.00
2021,06,24,02,46,14.00
2021,06,24,02,47,14.00
2021,06,24,02,48,13.90
2021,06,24,02,49,13.90
2021,06,24,02,50,13.90
2021,06,24,02,51,13.90
2021,06,24,02,52,13.90
2021,06,24,02,53,13.90
2021,06,24,02,54,13.90
2021,06,24,02,55,13.90
2021,06,24,02,56,13.90
2021,06,24,02,57,13.90
2021,06,24,02,58,13.90
2021,06,24,02,59,13.90
2021,06,24,03,00,13.90
2021,06,24,03,01,13.90
2021,06,24,03,02,13.80
2021,06,24,03,03,13.80
2021,06,24,03,04,13.80
2021,06,24,03,05,13.80
2021,06,24,03,06,13.80
2021,06,24,03,07,13.80
2021,06,24,03,08,13.80
2021,06,24,03,09,13.80
2021,06,24,03,10,13.80
2021,06,24,03,11,13.80
2021,06,24,03,12,13.80
2021,06,24,03,13,13.80
2021,06,24,03,14,13.80
2021,06,24,03,15,13.70
2021,06,24,03,16,13.70
2021,06,24,03,17,13.70
2021,06,24,03,18,13.70
2021,06,24,03,19,13.70
2021,06,24,03,20,13.70
2021,06,24,03,21,13.70
2021,06,24,03,22,13.70
2021,06,24,03,23,13.70
2021,06,24,03,24,13.70
2021,06,24,03,25,13.70
2021,06,24,03,26,13.70
2021,06,24,03,27,13.70
2021,06,24,03,28,13.70
2021,06,24,03,29,13.70
2021,06,24,03,30,13.70
2021,06,24,03,31,13.70
2021,06,24,03,32,13.70
2021,06,24,03,33,13.70
2021,06,24,03,34,13.70
2021,06,24,03,35,13.70
2021,06,24,03,36,13.70
2021,06,24,03,37,13.70
2021,06,24,03,38,13.70
2021,06,24,03,39,13.70
2021,06,24,03,40,13.70
2021,06,24,03,41,13.70
2021,06,24,03,42,13.70
2021,06,24,03,43,13.70
2021,06,24,03,44,13.70
2021,06,24,03,45,13.70
2021,06,24,03,46,13.70
2021,06,24,03,47,13.70
2021,06,24,03,48,13.70
2021,06,24,03,49,13.70
2021,06,24,03,50,13.70
2021,06,24,03,51,13.70
2021,06,24,03,52,13.70
2021,06,24,03,53,13.70
2021,06,24,03,54,13.70
2021,06,24,03,55,13.70
2021,06,24,03,56,13.60
2021,06,24,03,57,13.60
2021,06,24,03,58,13.60
2021,06,24,03,59,13.60
2021,06,24,04,00,13.60
2021,06,24,04,01,13.60
2021,06,24,04,02,13.60
2021,06,24,04,03,13.60
2021,06,24,04,04,13.60
2021,06,24,04,05,13.60
2021,06,24,04,06,13.60
2021,06,24,04,07,13.60
2021,06,24,04,08,13.60
2021,06,24,04,09,13.60
2021,06,24,04,10,13.60
2021,06,24,04,11,13.60
2021,06,24,04,12,13.60
2021,06,24,04,13,13.50
2021,06,24,04,14,13.60
2021,06,24,04,15,13.50
2021,06,24,04,16,13.50
2021,06,24,04,17,13.50
2021,06,24,04,18,13.50
2021,06,24,04,19,13.50
2021,06,24,04,20,13.50
2021,06,24,04,21,13.50
2021,06,24,04,22,13.50
2021,06,24,04,23,13.50
2021,06,24,04,24,13.50
2021,06,24,04,25,13.50
2021,06,24,04,26,13.50
2021,06,24,04,27,13.50
2021,06,24,04,28,13.50
2021,06,24,04,29,13.50
2021,06,24,04,30,13.50
2021,06,24,04,31,13.50
2021,06,24,04,32,13.50
2021,06,24,04,33,13.50
2021,06,24,04,34,13.50
2021,06,24,04,35,13.50
2021,06,24,04,36,13.50
2021,06,24,04,37,13.50
2021,06,24,04,38,13.50
2021,06,24,04,39,13.50
2021,06,24,04,40,13.50
2021,06,24,04,41,13.50
2021,06,24,04,42,13.50
2021,06,24,04,43,13.50
2021,06,24,04,44,13.50
2021,06,24,04,45,13.50
2021,06,24,04,46,13.50
2021,06,24,04,47,13.50
2021,06,24,04,48,13.40
2021,06,24,04,49,13.40
2021,06,24,04,50,13.40
2021,06,24,04,51,13.40
2021,06,24,04,52,13.40
2021,06,24,04,53,13.40
2021,06,24,04,54,13.40
2021,06,24,04,55,13.40
2021,06,24,04,56,13.40
2021,06,24,04,57,13.30
2021,06,24,04,58,13.30
2021,06,24,04,59,13.30
2021,06,24,05,00,13.30
2021,06,24,05,01,13.30
2021,06,24,05,02,13.30
2021,06,24,05,03,13.30
2021,06,24,05,04,13.30
2021,06,24,05,05,13.30
2021,06,24,05,06,13.30
2021,06,24,05,07,13.30
2021,06,24,05,08,13.30
2021,06,24,05,09,13.30
2021,06,24,05,10,13.30
2021,06,24,05,11,13.30
2021,06,24,05,12,13.30
2021,06,24,05,13,13.30
2021,06,24,05,14,13.20
2021,06,24,05,15,13.20
2021,06,24,05,16,13.20
2021,06,24,05,17,13.20
2021,06,24,05,18,13.20
2021,06,24,05,19,13.20
2021,06,24,05,20,13.20
2021,06,24,05,21,13.20
2021,06,24,05,22,13.20
2021,06,24,05,23,13.20
2021,06,24,05,24,13.20
2021,06,24,05,25,13.20
2021,06,24,05,26,13.20
2021,06,24,05,27,13.20
2021,06,24,05,28,13.20
2021,06,24,05,29,13.20
2021,06,24,05,30,13.20
2021,06,24,05,31,13.20
2021,06,24,05,32,13.20
2021,06,24,05,33,13.20
2021,06,24,05,34,13.20
2021,06,24,05,35,13.20
2021,06,24,05,36,13.20
2021,06,24,05,37,13.20
2021,06,24,05,38,13.20
2021,06,24,05,39,13.20
2021,06,24,05,40,13.20
2021,06,24,05,41,13.30
2021,06,24,05,42,13.30
2021,06,24,05,43,13.30
2021,06,24,05,44,13.30
2021,06,24,05,45,13.30
2021,06,24,05,46,13.30
2021,06,24,05,47,13.30
2021,06,24,05,48,13.40
2021,06,24,05,49,13.40
2021,06,24,05,50,13.40
2021,06,24,05,51,13.40
2021,06,24,05,52,13.40
2021,06,24,05,53,13.40
2021,06,24,05,54,13.40
2021,06,24,05,55,13.50
2021,06,24,05,56,13.50
2021,06,24,05,57,13.50
2021,06,24,05,58,13.50
2021,06,24,05,59,13.50
2021,06,24,06,00,13.50
2021,06,24,06,01,13.60
2021,06,24,06,02,13.60
2021,06,24,06,03,13.60
2021,06,24,06,04,13.60
2021,06,24,06,05,13.60
2021,06,24,06,06,13.60
2021,06,24,06,07,13.60
2021,06,24,06,08,13.60
2021,06,24,06,09,13.60
2021,06,24,06,10,13.70
2021,06,24,06,11,13.70
2021,06,24,06,12,13.70
2021,06,24,06,13,13.70
2021,06,24,06,14,13.70
2021,06,24,06,15,13.70
2021,06,24,06,16,13.70
2021,06,24,06,17,13.70
2021,06,24,06,18,13.70
2021,06,24,06,19,13.70
2021,06,24,06,20,13.70
2021,06,24,06,21,13.70
2021,06,24,06,22,13.70
2021,06,24,06,23,13.70
2021,06,24,06,24,13.70
2021,06,24,06,25,13.70
2021,06,24,06,26,13.70
2021,06,24,06,27,13.80
2021,06,24,06,28,13.80
2021,06,24,06,29,13.80
2021,06,24,06,30,13.80
2021,06,24,06,31,13.80
2021,06,24,06,32,13.80
2021,06,24,06,33,13.80
2021,06,24,06,34,13.90
2021,06,24,06,35,13.90
2021,06,24,06,36,13.90
2021,06,24,06,37,13.90
2021,06,24,06,38,14.00
2021,06,24,06,39,14.00
2021,06,24,06,40,14.10
2021,06,24,06,41,14.10
2021,06,24,06,42,14.10
2021,06,24,06,43,14.20
2021,06,24,06,44,14.20
2021,06,24,06,45,14.20
2021,06,24,06,46,14.30
2021,06,24,06,47,14.30
2021,06,24,06,48,14.30
2021,06,24,06,49,14.40
2021,06,24,06,50,14.40
2021,06,24,06,51,14.40
2021,06,24,06,52,14.40
2021,06,24,06,53,14.50
2021,06,24,06,54,14.50
2021,06,24,06,55,14.50
2021,06,24,06,56,14.50
2021,06,24,06,57,14.50
2021,06,24,06,58,14.60
2021,06,24,06,59,14.60
2021,06,24,07,00,14.60
2021,06,24,07,01,14.60
2021,06,24,07,02,14.60
2021,06,24,07,03,14.70
2021,06,24,07,04,14.70
2021,06,24,07,05,14.80
2021,06,24,07,06,14.80
2021,06,24,07,07,14.80
2021,06,24,07,08,14.90
2021,06,24,07,09,14.90
2021,06,24,07,10,14.90
2021,06,24,07,11,15.00
2021,06,24,07,12,15.00
2021,06,24,07,13,15.00
2021,06,24,07,14,15.10
2021,06,24,07,15,15.10
2021,06,24,07,16,15.10
2021,06,24,07,17,15.20
2021,06,24,07,18,15.20
2021,06,24,07,19,15.20
2021,06,24,07,20,15.20
2021,06,24,07,21,15.30
2021,06,24,07,22,15.30
2021,06,24,07,23,15.30
2021,06,24,07,24,15.30
2021,06,24,07,25,15.30
2021,06,24,07,26,15.30
2021,06,24,07,27,15.30
2021,06,24,07,28,15.30
2021,06,24,07,29,15.30
2021,06,24,07,30,15.30
2021,06,24,07,31,15.30
2021,06,24,07,32,15.20
2021,06,24,07,33,15.20
2021,06,24,07,34,15.20
2021,06,24,07,35,15.20
2021,06,24,07,36,15.30
2021,06,24,07,37,15.30
2021,06,24,07,38,15.30
2021,06,24,07,39,15.40
2021,06,24,07,40,15.40
2021,06,24,07,41,15.40
2021,06,24,07,42,15.40
2021,06,24,07,43,15.50
2021,06,24,07,44,15.50
2021,06,24,07,45,15.60
2021,06,24,07,46,15.60
2021,06,24,07,47,15.70
2021,06,24,07,48,15.70
2021,06,24,07,49,15.70
2021,06,24,07,50,15.80
2021,06,24,07,51,15.80
2021,06,24,07,52,15.90
2021,06,24,07,53,15.90
2021,06,24,07,54,16.00
2021,06,24,07,55,16.10
2021,06,24,07,56,16.10
2021,06,24,07,57,16.20
2021,06,24,07,58,16.30
2021,06,24,07,59,16.30
2021,06,24,08,00,16.40
2021,06,24,08,01,16.40
2021,06,24,08,02,16.40
2021,06,24,08,03,16.40
2021,06,24,08,04,16.40
2021,06,24,08,05,16.40
2021,06,24,08,06,16.40
2021,06,24,08,07,16.50
2021,06,24,08,08,16.50
2021,06,24,08,09,16.50
2021,06,24,08,10,16.60
2021,06,24,08,11,16.60
2021,06,24,08,12,16.70
2021,06,24,08,13,16.70
2021,06,24,08,14,16.80
2021,06,24,08,15,16.80
2021,06,24,08,16,16.90
2021,06,24,08,17,17.00
2021,06,24,08,18,17.10
2021,06,24,08,19,17.20
2021,06,24,08,20,17.20
2021,06,24,08,21,17.20
2021,06,24,08,22,17.20
2021,06,24,08,23,17.50
2021,06,24,08,24,17.50
2021,06,24,08,25,17.60
2021,06,24,08,26,17.60
2021,06,24,08,27,17.70
2021,06,24,08,28,17.70
2021,06,24,08,29,17.70
2021,06,24,08,30,17.80
2021,06,24,08,31,17.80
2021,06,24,08,32,17.80
2021,06,24,08,33,17.80
2021,06,24,08,34,17.80
2021,06,24,08,35,17.80
2021,06,24,08,36,17.80
2021,06,24,08,37,17.80
2021,06,24,08,38,17.90
2021,06,24,08,39,17.90
2021,06,24,08,40,18.00
2021,06,24,08,41,18.00
2021,06,24,08,42,18.10
2021,06,24,08,43,18.10
2021,06,24,08,44,18.10
2021,06,24,08,45,18.10
2021,06,24,08,46,18.10
2021,06,24,08,47,18.10
2021,06,24,08,48,18.10
2021,06,24,08,49,18.10
2021,06,24,08,50,18.20
2021,06,24,08,51,18.30
2021,06,24,08,52,18.40
2021,06,24,08,53,18.50
2021,06,24,08,54,18.60
2021,06,24,08,55,18.70
2021,06,24,08,56,18.80
2021,06,24,08,57,18.80
2021,06,24,08,58,18.90
2021,06,24,08,59,18.90
2021,06,24,09,00,19.00
2021,06,24,09,01,19.10
2021,06,24,09,02,19.10
2021,06,24,09,03,19.20
2021,06,24,09,04,19.20
2021,06,24,09,05,19.30
2021,06,24,09,06,19.30
2021,06,24,09,07,19.40
2021,06,24,09,08,19.40
2021,06,24,09,09,19.50
2021,06,24,09,10,19.60
2021,06,24,09,11,19.60
2021,06,24,09,12,19.70
2021,06,24,09,13,19.80
2021,06,24,09,14,19.90
2021,06,24,09,15,20.00
2021,06,24,09,16,20.10
2021,06,24,09,17,20.20
2021,06,24,09,18,20.30
2021,06,24,09,19,20.30
2021,06,24,09,20,20.30
2021,06,24,09,21,20.30
2021,06,24,09,22,20.20
2021,06,24,09,23,20.10
2021,06,24,09,24,20.10
2021,06,24,09,25,20.10
2021,06,24,09,26,20.10
2021,06,24,09,27,20.10
2021,06,24,09,28,20.10
2021,06,24,09,29,20.10
2021,06,24,09,30,20.10
2021,06,24,09,31,20.00
2021,06,24,09,32,20.00
2021,06,24,09,33,20.00
2021,06,24,09,34,20.10
2021,06,24,09,35,20.20
2021,06,24,09,36,20.20
2021,06,24,09,37,20.30
2021,06,24,09,38,20.30
2021,06,24,09,39,20.40
2021,06,24,09,40,20.40
2021,06,24,09,41,20.30
2021,06,24,09,42,20.30
2021,06,24,09,43,20.40
2021,06,24,09,44,20.30
2021,06,24,09,45,20.40
2021,06,24,09,46,20.40
2021,06,24,09,47,20.40
2021,06,24,09,48,20.50
2021,06,24,09,49,20.50
2021,06,24,09,50,20.60
2021,06,24,09,51,20.70
2021,06,24,09,52,20.70
2021,06,24,09,53,20.70
2021,06,24,09,54,20.80
2021,06,24,09,55,20.80
2021,06,24,09,56,20.80
2021,06,24,09,57,20.80
2021,06,24,09,58,20.80
2021,06,24,09,59,20.80
2021,06,24,10,00,20.80
2021,06,24,10,01,20.90
2021,06,24,10,02,20.90
2021,06,24,10,03,21.00
2021,06,24,10,04,21.10
2021,06,24,10,05,21.20
2021,06,24,10,06,21.30
2021,06,24,10,07,21.40
2021,06,24,10,08,21.40
2021,06,24,10,09,21.40
2021,06,24,10,10,21.50
2021,06,24,10,11,21.60
2021,06,24,10,12,21.60
2021,06,24,10,13,21.60
2021,06,24,10,14,21.60
2021,06,24,10,15,21.60
2021,06,24,10,16,21.60
2021,06,24,10,17,21.70
2021,06,24,10,18,21.70
2021,06,24,10,19,21.80
2021,06,24,10,20,21.80
2021,06,24,10,21,21.90
2021,06,24,10,22,21.90
2021,06,24,10,23,21.90
2021,06,24,10,24,21.90
2021,06,24,10,25,21.90
2021,06,24,10,26,21.90
2021,06,24,10,27,22.00
2021,06,24,10,28,22.00
2021,06,24,10,29,22.10
2021,06,24,10,30,22.20
2021,06,24,10,31,22.20
2021,06,24,10,32,22.30
2021,06,24,10,33,22.30
2021,06,24,10,34,22.40
2021,06,24,10,35,22.40
2021,06,24,10,36,22.40
2021,06,24,10,37,22.40
2021,06,24,10,38,22.50
2021,06,24,10,39,22.50
2021,06,24,10,40,22.60
2021,06,24,10,41,22.60
2021,06,24,10,42,22.60
2021,06,24,10,43,22.70
2021,06,24,10,44,22.80
2021,06,24,10,45,22.90
2021,06,24,10,46,23.00
2021,06,24,10,47,23.10
2021,06,24,10,48,23.10
2021,06,24,10,49,23.10
2021,06,24,10,50,23.10
2021,06,24,10,51,23.10
2021,06,24,10,52,23.10
2021,06,24,10,53,23.10
2021,06,24,10,54,23.10
2021,06,24,10,55,23.10
2021,06,24,10,56,23.10
2021,06,24,10,57,23.20
2021,06,24,10,58,23.20
2021,06,24,10,59,23.30
2021,06,24,11,00,23.30
2021,06,24,11,01,23.30
2021,06,24,11,02,23.30
2021,06,24,11,03,23.40
2021,06,24,11,04,23.50
2021,06,24,11,05,23.60
2021,06,24,11,06,23.70
2021,06,24,11,07,23.80
2021,06,24,11,08,23.90
2021,06,24,11,09,23.90
2021,06,24,11,10,23.90
2021,06,24,11,11,23.90
2021,06,24,11,12,24.00
2021,06,24,11,13,24.00
2021,06,24,11,14,24.10
2021,06,24,11,15,24.20
2021,06,24,11,16,24.30
2021,06,24,11,17,24.40
2021,06,24,11,18,24.50
2021,06,24,11,19,24.60
2021,06,24,11,20,24.70
2021,06,24,11,21,24.80
2021,06,24,11,22,24.80
2021,06,24,11,23,24.80
2021,06,24,11,24,24.80
2021,06,24,11,25,24.70
2021,06,24,11,26,24.70
2021,06,24,11,27,24.70
2021,06,24,11,28,24.70
2021,06,24,11,29,24.60
2021,06,24,11,30,24.70
2021,06,24,11,31,24.70
2021,06,24,11,32,24.80
2021,06,24,11,33,24.90
2021,06,24,11,34,25.00
2021,06,24,11,35,25.10
2021,06,24,11,36,25.10
2021,06,24,11,37,25.10
2021,06,24,11,38,25.20
2021,06,24,11,39,25.20
2021,06,24,11,40,25.10
2021,06,24,11,41,25.10
2021,06,24,11,42,25.10
2021,06,24,11,43,25.00
2021,06,24,11,44,24.90
2021,06,24,11,45,24.90
2021,06,24,11,46,25.00
2021,06,24,11,47,24.90
2021,06,24,11,48,25.00
2021,06,24,11,49,25.00
2021,06,24,11,50,25.00
2021,06,24,11,51,25.10
2021,06,24,11,52,25.10
2021,06,24,11,53,25.10
2021,06,24,11,54,25.20
2021,06,24,11,55,25.20
2021,06,24,11,56,25.20
2021,06,24,11,57,25.30
2021,06,24,11,58,25.30
2021,06,24,11,59,25.30
2021,06,24,12,00,25.30
2021,06,24,12,01,25.30
2021,06,24,12,02,25.40
2021,06,24,12,03,25.40
2021,06,24,12,04,25.40
2021,06,24,12,05,25.40
2021,06,24,12,06,25.40
2021,06,24,12,07,25.50
2021,06,24,12,08,25.50
2021,06,24,12,09,25.40
2021,06,24,12,10,25.40
2021,06,24,12,11,25.40
2021,06,24,12,12,25.40
2021,06,24,12,13,25.40
2021,06,24,12,14,25.50
2021,06,24,12,15,25.50
2021,06,24,12,16,25.60
2021,06,24,12,17,25.60
2021,06,24,12,18,25.70
2021,06,24,12,19,25.70
2021,06,24,12,20,25.70
2021,06,24,12,21,25.70
2021,06,24,12,22,25.70
2021,06,24,12,23,25.80
2021,06,24,12,24,25.80
2021,06,24,12,25,25.90
2021,06,24,12,26,25.90
2021,06,24,12,27,25.90
2021,06,24,12,28,25.90
2021,06,24,12,29,25.90
2021,06,24,12,30,25.80
2021,06,24,12,31,25.80
2021,06,24,12,32,25.80
2021,06,24,12,33,25.90
2021,06,24,12,34,25.90
2021,06,24,12,35,26.00
2021,06,24,12,36,26.10
2021,06,24,12,37,26.10
2021,06,24,12,38,26.10
2021,06,24,12,39,26.10
2021,06,24,12,40,26.10
2021,06,24,12,41,26.20
2021,06,24,12,42,26.20
2021,06,24,12,43,26.30
2021,06,24,12,44,26.40
2021,06,24,12,45,26.40
2021,06,24,12,46,26.50
2021,06,24,12,47,26.50
2021,06,24,12,48,26.60
2021,06,24,12,49,26.60
2021,06,24,12,50,26.60
2021,06,24,12,51,26.60
2021,06,24,12,52,26.60
2021,06,24,12,53,26.70
2021,06,24,12,54,26.80
2021,06,24,12,55,26.80
2021,06,24,12,56,26.80
2021,06,24,12,57,26.80
2021,06,24,12,58,26.90
2021,06,24,12,59,27.00
2021,06,24,13,00,27.00
2021,06,24,13,01,27.10
2021,06,24,13,02,27.10
2021,06,24,13,03,27.20
2021,06,24,13,04,27.20
2021,06,24,13,05,27.20
2021,06,24,13,06,27.10
2021,06,24,13,07,27.10
2021,06,24,13,08,27.10
2021,06,24,13,09,27.10
2021,06,24,13,10,27.10
2021,06,24,13,11,27.00
2021,06,24,13,12,27.00
2021,06,24,13,13,26.90
2021,06,24,13,14,26.90
2021,06,24,13,15,26.90
2021,06,24,13,16,26.90
2021,06,24,13,17,26.90
2021,06,24,13,18,26.90
2021,06,24,13,19,26.90
2021,06,24,13,20,27.00
2021,06,24,13,21,27.10
2021,06,24,13,22,27.20
2021,06,24,13,23,27.20
2021,06,24,13,24,27.20
2021,06,24,13,25,27.30
2021,06,24,13,26,27.40
2021,06,24,13,27,27.50
2021,06,24,13,28,27.60
2021,06,24,13,29,27.60
2021,06,24,13,30,27.60
2021,06,24,13,31,27.60
2021,06,24,13,32,27.60
2021,06,24,13,33,27.50
2021,06,24,13,34,27.40
2021,06,24,13,35,27.40
2021,06,24,13,36,27.40
2021,06,24,13,37,27.40
2021,06,24,13,38,27.40
2021,06,24,13,39,27.50
2021,06,24,13,40,27.50
2021,06,24,13,41,27.60
2021,06,24,13,42,27.70
2021,06,24,13,43,27.80
2021,06,24,13,44,27.90
2021,06,24,13,45,27.90
2021,06,24,13,46,27.90
2021,06,24,13,47,27.90
2021,06,24,13,48,27.80
2021,06,24,13,49,27.80
2021,06,24,13,50,27.80
2021,06,24,13,51,27.80
2021,06,24,13,52,27.70
2021,06,24,13,53,27.70
2021,06,24,13,54,27.60
2021,06,24,13,55,27.60
2021,06,24,13,56,27.60
2021,06,24,13,57,27.50
2021,06,24,13,58,27.50
2021,06,24,13,59,27.50
2021,06,24,14,00,27.60
2021,06,24,14,01,27.70
2021,06,24,14,02,27.80
2021,06,24,14,03,27.80
2021,06,24,14,04,27.90
2021,06,24,14,05,27.90
2021,06,24,14,06,27.90
2021,06,24,14,07,27.90
2021,06,24,14,08,27.90
2021,06,24,14,09,27.90
2021,06,24,14,10,27.90
2021,06,24,14,11,28.00
2021,06,24,14,12,28.10
2021,06,24,14,13,28.10
2021,06,24,14,14,28.10
2021,06,24,14,15,28.10
2021,06,24,14,16,28.10
2021,06,24,14,17,28.10
2021,06,24,14,18,28.20
2021,06,24,14,19,28.20
2021,06,24,14,20,28.20
2021,06,24,14,21,28.20
2021,06,24,14,22,28.20
2021,06,24,14,23,28.20
2021,06,24,14,24,28.10
2021,06,24,14,25,28.10
2021,06,24,14,26,28.10
2021,06,24,14,27,28.10
2021,06,24,14,28,28.10
2021,06,24,14,29,28.10
2021,06,24,14,30,28.10
2021,06,24,14,31,28.20
2021,06,24,14,32,28.20
2021,06,24,14,33,28.20
2021,06,24,14,34,28.20
2021,06,24,14,35,28.20
2021,06,24,14,36,28.20
2021,06,24,14,37,28.30
2021,06,24,14,38,28.30
2021,06,24,14,39,28.30
2021,06,24,14,40,28.30
2021,06,24,14,41,28.30
2021,06,24,14,42,28.30
2021,06,24,14,43,28.40
2021,06,24,14,44,28.40
2021,06,24,14,45,28.40
2021,06,24,14,46,28.40
2021,06,24,14,47,28.40
2021,06,24,14,48,28.30
2021,06,24,14,49,28.30
2021,06,24,14,50,28.30
2021,06,24,14,51,28.30
2021,06,24,14,52,28.30
2021,06,24,14,53,28.30
2021,06,24,14,54,28.30
2021,06,24,14,55,28.20
2021,06,24,14,56,28.30
2021,06,24,14,57,28.30
2021,06,24,14,58,28.30
2021,06,24,14,59,28.30
2021,06,24,15,00,28.30
2021,06,24,15,01,28.30
2021,06,24,15,02,28.40
2021,06,24,15,03,28.50
2021,06,24,15,04,28.50
2021,06,24,15,05,28.60
2021,06,24,15,06,28.60
2021,06,24,15,07,28.60
2021,06,24,15,08,28.60
2021,06,24,15,09,28.60
2021,06,24,15,10,28.70
2021,06,24,15,11,28.70
2021,06,24,15,12,28.70
2021,06,24,15,13,28.70
2021,06,24,15,14,28.70
2021,06,24,15,15,28.70
2021,06,24,15,16,28.70
2021,06,24,15,17,28.70
2021,06,24,15,18,28.80
2021,06,24,15,19,28.80
2021,06,24,15,20,28.80
2021,06,24,15,21,28.80
2021,06,24,15,22,28.80
2021,06,24,15,23,28.90
2021,06,24,15,24,28.90
2021,06,24,15,25,28.90
2021,06,24,15,26,28.90
2021,06,24,15,27,28.90
2021,06,24,15,28,28.90
2021,06,24,15,29,28.90
2021,06,24,15,30,28.90
2021,06,24,15,31,28.90
2021,06,24,15,32,28.90
2021,06,24,15,33,29.00
2021,06,24,15,34,29.10
2021,06,24,15,35,29.10
2021,06,24,15,36,29.10
2021,06,24,15,37,29.20
2021,06,24,15,38,29.20
2021,06,24,15,39,29.20
2021,06,24,15,40,29.20
2021,06,24,15,41,29.20
2021,06,24,15,42,29.10
2021,06,24,15,43,29.10
2021,06,24,15,44,29.10
2021,06,24,15,45,29.10
2021,06,24,15,46,29.20
2021,06,24,15,47,29.20
2021,06,24,15,48,29.20
2021,06,24,15,49,29.30
2021,06,24,15,50,29.20
2021,06,24,15,51,29.20
2021,06,24,15,52,29.30
2021,06,24,15,53,29.30
2021,06,24,15,54,29.30
2021,06,24,15,55,29.30
2021,06,24,15,56,29.30
2021,06,24,15,57,29.30
2021,06,24,15,58,29.30
2021,06,24,15,59,29.30
2021,06,24,16,00,29.30
2021,06,24,16,01,29.30
2021,06,24,16,02,29.30
2021,06,24,16,03,29.20
2021,06,24,16,04,29.10
2021,06,24,16,05,29.00
2021,06,24,16,06,28.90
2021,06,24,16,07,28.80
2021,06,24,16,08,28.80
2021,06,24,16,09,28.80
2021,06,24,16,10,28.80
2021,06,24,16,11,28.80
2021,06,24,16,12,28.70
2021,06,24,16,13,28.70
2021,06,24,16,14,28.60
2021,06,24,16,15,28.50
2021,06,24,16,16,28.40
2021,06,24,16,17,28.40
2021,06,24,16,18,28.40
2021,06,24,16,19,28.30
2021,06,24,16,20,28.30
2021,06,24,16,21,28.30
2021,06,24,16,22,28.30
2021,06,24,16,23,28.30
2021,06,24,16,24,28.30
2021,06,24,16,25,28.40
2021,06,24,16,26,28.50
2021,06,24,16,27,28.60
2021,06,24,16,28,28.70
2021,06,24,16,29,28.70
2021,06,24,16,30,28.80
2021,06,24,16,31,28.80
2021,06,24,16,32,28.70
2021,06,24,16,33,28.70
2021,06,24,16,34,28.70
2021,06,24,16,35,28.70
2021,06,24,16,36,28.70
2021,06,24,16,37,28.80
2021,06,24,16,38,28.80
2021,06,24,16,39,28.90
2021,06,24,16,40,28.90
2021,06,24,16,41,28.80
2021,06,24,16,42,28.90
2021,06,24,16,43,28.90
2021,06,24,16,44,28.90
2021,06,24,16,45,28.90
2021,06,24,16,46,28.90
2021,06,24,16,47,28.90
2021,06,24,16,48,28.90
2021,06,24,16,49,28.90
2021,06,24,16,50,28.90
2021,06,24,16,51,28.90
2021,06,24,16,52,28.90
2021,06,24,16,53,28.80
2021,06,24,16,54,28.80
2021,06,24,16,55,28.80
2021,06,24,16,56,28.80
2021,06,24,16,57,28.80
2021,06,24,16,58,28.80
2021,06,24,16,59,28.90
2021,06,24,17,00,28.90
2021,06,24,17,01,29.00
2021,06,24,17,02,29.00
2021,06,24,17,03,29.10
2021,06,24,17,04,29.10
2021,06,24,17,05,29.20
2021,06,24,17,06,29.20
2021,06,24,17,07,29.30
2021,06,24,17,08,29.20
2021,06,24,17,09,29.20
2021,06,24,17,10,29.20
2021,06,24,17,11,29.20
2021,06,24,17,12,29.20
2021,06,24,17,13,29.10
2021,06,24,17,14,29.10
2021,06,24,17,15,29.00
2021,06,24,17,16,29.00
2021,06,24,17,17,28.90
2021,06,24,17,18,28.80
2021,06,24,17,19,28.70